{"data":{"norad_id":68129,"epoch":"2026-09-20T22:22:42.860928Z","epoch_age_seconds":40818,"freshness":"FRESH","line1":"1 68129U 26047A   26263.93244052 -.00000106  00000+0  38631-4 0  9995","line2":"2 68129  50.0024  72.9827 0001234  89.6957 270.4056 13.29329726 25801","mean_motion":13.29329726,"eccentricity":0.0001234,"inclination_deg":50.0024,"raan_deg":72.9827,"arg_perigee_deg":89.6957,"mean_anomaly_deg":270.4056,"bstar":3.8631e-5,"rev_number":2580,"period_min":108.32526888066,"perigee_km":1148.3636211832,"apogee_km":1150.2213907852,"semimajor_km":7527.4295059842,"source":"CELESTRAK","updated_at":"2026-09-21T09:00:17.093586Z"}}